map of BZV home
BZV - Airport
Location
City:  Brazzaville, Congo (Republic of)
Name:Maya Maya
ICAO:FCBB
IATA:BZV

Details
Type:Airport (Aerodrome, Airfield)
Use:Public/Civil, International (customs port of entry)
Latitude:415'02"S (-4.250499)
Longitude:1515'05"E (15.251500)
Elevation:1047 ft (319 m)
Variation:1.53W (WMM2015 magnetic declination)
0.15 annual change
Runways:1
Longest:10827 × 148 ft (3300 × 45 m)

Time
Time Zone:UTC+1
Local Time:

Weather
METAR:FCBB 291400Z 08006KT 040V160 8000 NSC 34/18 Q1009 NOSIG
TAF:FCBB 291100Z 2912/3018 22004KT 7000 SCT016 PROB30 2916/2919 4000 HZ PROB30 3006/3009 3500 BR

Related Locations
Nearby:
Farthest:PLPA: 12228 mi / 19679 km
Palmyra Island Atoll [Palmyra Airport (Cooper)], UM

Find:

   beyond  
but within

Other Information
Maps:
NOTAMs:
Links:
Sources:

  
flag of Congo (Republic of)   

Sectional Chart

Flight Planning
at skyvector.com

Satellite Image

Google Maps Satellite view

 

Copyright © 2004-2016 Karl L. Swartz. All rights reserved.
The Great Circle Mapper name and logo are trademarks of the Great Circle Mapper.
All other trademarks mentioned herein belong to their respective owners.
Please see credits for attibutions and further copyright information.

  Follow gcmap on Facebook Follow gcmap on Twitter Follow gcmap on Google+ GCmap on LinkedIn

hCard Microformat

Geo Microformat